DW7027 Weather Reports


Display with metric or nautical units.
time (UTC)temp
F
wind
direction
speed
MPH
gust
MPH
rain 1hr
in
rain 24hr
in
rain mn
in
humidity
%
barometer
mb
20181119171715 35 0 2.0 2.0 0.00 0.09 0.09 64 1015.0
20181119170715 35 0 2.0 2.0 0.00 0.09 0.09 64 1015.0
20181119165715 35 0 2.0 3.0 0.00 0.09 0.09 64 1015.0
20181119164716 35 0 2.0 3.0 0.00 0.09 0.09 64 1014.5
20181119163715 35 0 2.0 2.0 0.00 0.09 0.09 63 1014.0
20181119162716 35 22 2.0 2.0 0.00 0.09 0.09 64 1014.0
20181119161715 35 0 2.0 3.0 0.00 0.09 0.09 63 1014.0
20181119160715 35 22 1.0 3.0 0.00 0.09 0.09 64 1014.0
20181119155715 36 338 2.0 2.0 0.00 0.09 0.09 64 1014.0
20181119154715 36 0 2.0 3.0 0.00 0.09 0.09 63 1013.5
20181119153716 36 22 2.0 2.0 0.00 0.09 0.09 64 1013.0
20181119152715 36 340 2.0 5.0 0.00 0.09 0.09 63 1014.0
20181119151715 36 12 3.0 5.0 0.00 0.09 0.09 63 1014.0
20181119150715 36 0 3.0 3.0 0.00 0.09 0.09 64 1014.0
20181119145715 36 0 3.0 3.0 0.00 0.09 0.09 63 1013.0
20181119144715 36 16 3.0 5.0 0.04 0.09 0.09 64 1013.0
20181119143715 36 22 3.0 5.0 0.04 0.09 0.09 64 1013.0
20181119142715 37 355 1.0 3.0 0.04 0.09 0.09 64 1014.0
20181119141715 37 0 2.0 3.0 0.04 0.09 0.09 63 1014.0
20181119140716 37 0 2.0 2.0 0.04 0.09 0.09 64 1014.0
20181119135715 37 0 2.0 3.0 0.09 0.09 0.09 64 1014.0
20181119134715 37 30 2.0 3.0 0.04 0.04 0.04 63 1013.5
20181119133716 37 27 2.0 6.0 0.04 0.04 0.04 63 1013.0
20181119132715 37 34 3.0 6.0 0.04 0.04 0.04 63 1013.0
20181119131715 37 0 5.0 6.0 0.04 0.04 0.04 62 1013.0
20181119130716 36 22 3.0 7.0 0.04 0.04 0.04 66 1013.0
20181119125715 36 0 0.0 3.0 0.00 0.00 0.00 66 1013.0
20181119124716 36 17 2.0 5.0 0.00 0.00 0.00 67 1013.0
20181119123715 36 22 3.0 5.0 0.00 0.00 0.00 67 1013.0
20181119122716 36 38 2.0 5.0 0.00 0.00 0.00 65 1012.0
20181119121715 36 36 3.0 6.0 0.00 0.00 0.00 65 1012.5
20181119120716 35 0 2.0 6.0 0.00 0.00 0.00 64 1013.0
20181119115716 35 22 4.0 6.0 0.00 0.00 0.00 63 1013.0
20181119114715 35 22 3.0 6.0 0.00 0.00 0.00 67 1013.0
20181119113715 35 0 3.0 6.0 0.00 0.00 0.00 68 1013.0
20181119112716 35 341 4.0 6.0 0.00 0.00 0.00 71 1014.0
20181119111716 35 22 2.0 5.0 0.00 0.00 0.00 74 1014.0
20181119110716 35 22 3.0 6.0 0.00 0.00 0.00 73 1014.0
20181119105716 35 0 5.0 6.0 0.00 0.00 0.00 74 1013.0
20181119104716 34 338 3.0 3.0 0.00 0.00 0.00 74 1013.7
20181119103716 34 338 3.0 3.0 0.00 0.00 0.00 76 1014.0
20181119102716 34 338 3.0 1.0 0.00 0.00 0.00 77 1013.0
20181119101715 34 338 3.0 2.0 0.00 0.00 0.00 77 1013.7
20181119100716 34 338 5.0 2.0 0.00 0.00 0.00 78 1014.0
20181119095717 34 338 5.0 5.0 0.00 0.00 0.00 78 1014.0
20181119094716 34 0 5.0 5.0 0.00 0.00 0.00 79 1014.0
20181119093716 34 0 5.0 5.0 0.00 0.00 0.00 80 1014.0
20181119092716 33 0 5.0 5.0 0.00 0.00 0.00 80 1014.0
20181119091716 33 0 5.0 5.0 0.00 0.00 0.00 80 1014.0
20181119090717 33 0 5.0 5.0 0.00 0.00 0.00 81 1014.0
20181119085716 33 0 5.0 5.0 0.00 0.00 0.00 82 1014.0
20181119084716 33 0 2.0 5.0 0.00 0.00 0.00 82 1014.0
20181119083716 32 8 3.0 5.0 0.00 0.00 0.00 82 1014.0
20181119082716 32 0 2.0 6.0 0.00 0.00 0.00 82 1014.0
20181119081717 32 9 4.0 2.0 0.00 0.00 0.00 83 1014.0
20181119080716 32 0 2.0 3.0 0.00 0.00 0.00 83 1014.0
20181119075716 32 0 3.0 3.0 0.00 0.00 0.00 84 1014.0
20181119074716 32 0 3.0 3.0 0.00 0.00 0.00 84 1013.3
20181119073717 32 2 3.0 6.0 0.00 0.00 0.00 84 1013.0
20181119072716 32 338 2.0 3.0 0.00 0.00 0.00 85 1013.0
20181119071716 31 319 3.0 2.0 0.00 0.00 0.00 86 1013.0
20181119070716 31 315 2.0 1.0 0.00 0.00 0.00 86 1013.0
20181119065717 31 315 2.0 1.0 0.00 0.00 0.00 87 1013.0
20181119064717 31 315 2.0 3.0 0.00 0.00 0.00 87 1013.0
20181119063717 31 22 3.0 3.0 0.00 0.00 0.00 87 1013.0
20181119062717 31 19 2.0 2.0 0.00 0.00 0.00 87 1013.0
20181119061716 31 0 2.0 5.0 0.00 0.00 0.00 87 1013.0
20181119060717 31 315 2.0 3.0 0.00 0.00 0.00 87 1013.0
20181119055716 31 22 2.0 2.0 0.00 0.00 0.00 87 1012.0
20181119054717 31 22 3.0 2.0 0.00 0.00 0.00 87 1012.0
20181119053716 31 22 3.0 2.0 0.00 0.00 0.00 87 1012.0
20181119052716 31 22 3.0 2.0 0.00 0.00 0.00 87 1013.0
20181119051716 31 22 3.0 2.0 0.00 0.00 0.00 87 1013.0
20181119050716 31 22 3.0 2.0 0.00 0.00 0.00 87 1013.0
20181119045716 31 22 3.0 2.0 0.00 0.00 0.00 87 1013.0
20181119044717 31 22 3.0 2.0 0.00 0.00 0.00 87 1013.0
20181119043717 31 22 3.0 2.0 0.00 0.00 0.00 86 1013.0
20181119042717 32 22 3.0 2.0 0.00 0.00 0.00 86 1013.0
20181119041717 32 22 3.0 2.0 0.00 0.00 0.00 85 1013.0
20181119040717 32 22 3.0 2.0 0.00 0.00 0.00 85 1013.0
20181119035717 32 22 3.0 2.0 0.00 0.00 0.00 86 1013.0
20181119034716 32 22 3.0 2.0 0.00 0.00 0.00 86 1013.0
20181119033717 32 22 3.0 2.0 0.00 0.00 0.00 86 1013.0
20181119032717 31 22 3.0 3.0 0.00 0.00 0.00 87 1013.0
20181119031717 31 0 5.0 3.0 0.00 0.00 0.00 88 1013.0
20181119030717 31 0 3.0 3.0 0.00 0.00 0.00 88 1013.0
20181119025718 31 22 2.0 3.0 0.00 0.00 0.00 88 1013.0
20181119024717 31 22 2.0 5.0 0.00 0.00 0.00 88 1013.0
20181119023717 31 9 3.0 3.0 0.00 0.00 0.00 88 1013.0
20181119022717 31 19 1.0 2.0 0.00 0.00 0.00 88 1013.0
20181119021717 31 19 2.0 6.0 0.00 0.00 0.00 88 1013.0
20181119020717 31 0 2.0 3.0 0.00 0.00 0.00 88 1013.0
20181119015717 31 0 2.0 2.0 0.00 0.00 0.00 88 1014.0
20181119014717 31 343 2.0 3.0 0.00 0.00 0.00 88 1014.0
20181119013717 31 338 2.0 3.0 0.00 0.00 0.00 88 1014.0
20181119012717 31 22 2.0 5.0 0.00 0.00 0.00 88 1015.0
20181119011717 31 12 2.0 6.0 0.00 0.00 0.00 88 1015.0
20181119010717 31 0 2.0 5.0 0.00 0.00 0.00 88 1015.0
20181119005717 31 22 3.0 2.0 0.00 0.00 0.00 87 1015.0
20181119004716 32 22 6.0 2.0 0.00 0.00 0.00 87 1015.0
20181119003717 32 22 6.0 7.0 0.00 0.00 0.00 86 1015.0
20181119002717 32 343 2.0 2.0 0.00 0.00 0.00 85 1015.0
20181119001717 32 16 2.0 6.0 0.00 0.00 0.00 85 1015.0
20181119000718 32 22 3.0 3.0 0.00 0.00 0.00 84 1015.0
20181118235717 32 22 2.0 2.0 0.00 0.00 0.00 84 1015.0
20181118234718 32 22 2.0 2.0 0.00 0.00 0.00 84 1015.0
20181118233717 32 26 3.0 5.0 0.00 0.00 0.00 83 1015.0
20181118232717 31 26 1.0 3.0 0.00 0.00 0.00 84 1015.0
20181118231718 31 17 3.0 6.0 0.00 0.00 0.00 84 1015.0
20181118230719 31 18 3.0 8.0 0.00 0.00 0.00 84 1015.0
20181118225717 31 351 3.0 5.0 0.00 0.00 0.00 84 1015.0
20181118224717 31 0 1.0 3.0 0.00 0.00 0.00 84 1015.0
20181118223718 31 7 2.0 5.0 0.00 0.00 0.00 84 1015.0
20181118222718 31 4 2.0 3.0 0.00 0.00 0.00 84 1015.0
20181118221718 31 14 3.0 6.0 0.00 0.00 0.00 84 1015.0
20181118220718 31 10 2.0 3.0 0.00 0.00 0.00 84 1015.0
20181118215717 31 11 2.0 5.0 0.00 0.00 0.00 85 1015.0
20181118214717 31 13 2.0 5.0 0.00 0.00 0.00 85 1015.7
20181118213717 31 22 1.0 3.0 0.00 0.00 0.00 85 1016.0
20181118212717 31 0 2.0 3.0 0.00 0.00 0.00 85 1016.0
20181118211717 31 7 1.0 2.0 0.00 0.00 0.00 86 1016.0
20181118210718 31 16 1.0 2.0 0.00 0.00 0.00 86 1016.0
20181118205718 31 0 1.0 3.0 0.00 0.00 0.00 87 1016.0
20181118204718 31 356 2.0 3.0 0.00 0.00 0.00 87 1016.7
20181118203718 31 17 2.0 6.0 0.00 0.00 0.00 88 1017.0
20181118202718 31 36 2.0 3.0 0.00 0.00 0.00 88 1017.0
20181118201718 31 18 2.0 5.0 0.00 0.00 0.00 89 1017.0
20181118200718 31 22 3.0 5.0 0.00 0.00 0.00 89 1017.0
20181118195718 31 23 3.0 6.0 0.00 0.00 0.00 89 1017.0
20181118194718 31 13 3.0 8.0 0.00 0.00 0.00 88 1017.0
20181118193718 32 356 2.0 5.0 0.00 0.00 0.00 88 1017.0
20181118192718 32 343 3.0 5.0 0.00 0.00 0.00 88 1017.0
20181118191718 32 355 2.0 5.0 0.00 0.00 0.00 88 1017.0
20181118190718 32 3 3.0 6.0 0.00 0.00 0.00 88 1017.0
20181118185718 32 13 3.0 7.0 0.00 0.00 0.00 88 1017.0
20181118184718 32 9 3.0 8.0 0.00 0.00 0.00 87 1017.0
20181118183718 32 358 5.0 6.0 0.00 0.00 0.00 87 1017.0
20181118182718 32 14 3.0 7.0 0.00 0.00 0.00 87 1016.0
20181118181718 32 20 3.0 8.0 0.00 0.00 0.00 86 1016.6
20181118180718 32 15 4.0 8.0 0.00 0.00 0.00 85 1017.0
20181118175718 32 6 3.0 8.0 0.00 0.00 0.00 85 1017.0
20181118174718 32 15 6.0 12.0 0.00 0.00 0.00 85 1017.0
20181118173718 32 10 6.0 9.0 0.00 0.00 0.00 85 1017.0
20181118172719 32 22 7.0 10.0 0.00 0.00 0.00 85 1018.0